Regional Weather Roundup
Issued by NWS Cleveland, OH

Home | Current Version | Previous Version | Graphics & Text | Print | Product List | Glossary On
Versions: 1 2 3 4 5 6 7 8 9 10 11 12 13 14 15 16 17 18 19 20 21 22 23 24 25 26 27 28 29 30 31 32 33 34 35 36 37 38 39 40 41 42 43 44 45 46 47 48 49 50
000
ASUS41 KCLE 201800
RWRCLE
OHIO REGIONAL WEATHER ROUNDUP
NATIONAL WEATHER SERVICE WILMINGTON, OH
100 PM EST FRI JAN 20 2017

NOTE: "FAIR" INDICATES FEW OR NO CLOUDS BELOW 12,000 FEET WITH NO
SIGNIFICANT WEATHER AND/OR OBSTRUCTIONS TO VISIBILITY.

OHZ001>008-015>018-024>027-034-035-043-044-201900-
   NORTHWEST OHIO

CITY           SKY/WX    TMP DP  RH WIND       PRES   REMARKS
DEFIANCE       CLOUDY    42  41  96 SW6       29.65S FOG
FINDLAY        CLOUDY    52  47  83 SW13      29.64S
TOLEDO EXPRESS FOG       41  41 100 S5        29.64S VSB 1/4
TOLEDO EXEC    FOG       42  42 100 SW5       29.64F VSB 1/2
LIMA           CLOUDY    51  51 100 W10       29.65F
$$

OHZ009>014-019>023-028>033-038-089-201900-
   NORTHEAST OHIO

CITY           SKY/WX    TMP DP  RH WIND       PRES   REMARKS
CLE-HOPKINS    CLOUDY    51  46  83 SW12      29.67F HAZE
CLE-LAKEFRONT  CLOUDY    50  47  89 S10       29.64F
CUY CO. ARPT   CLOUDY    50  46  87 S12       29.66F
LORAIN-ELYRIA  LGT RAIN  49  46  90 SW10      29.65S FOG
ASHTABULA      CLOUDY    45  44  97 S9        29.68S
AKRON-CANTON   CLOUDY    51  48  89 SW14      29.67S FOG
WOOSTER        NOT AVBL
MANSFIELD      CLOUDY    54  51  90 SW13G23   29.65F
YOUNGSTOWN     LGT RAIN  47  45  93 S8        29.68S FOG
$$

OHZ042-051>053-060>062-070>072-077>081-201900-
  SOUTHWEST OHIO

CITY           SKY/WX    TMP DP  RH WIND       PRES   REMARKS
CINC-COVINGTON CLOUDY    57  52  83 SW9G18    29.71F
CINC-LUNKEN    CLOUDY    59  52  77 SW13      29.72S
HAMILTON       CLOUDY    59  53  80 SW8G16    29.71F
DAYTON         NOT AVBL
WRIGHT-PAT AFB NOT AVBL
DAYTON GENERAL CLOUDY    57  51  80 SW12G22   29.68F
WILMINGTON     CLOUDY    58  53  84 SW16G23   29.69F
$$

OHZ036-037-039>041-045>050-054>059-063>069-073>076-082>088-201900-
  CENTRAL AND SOUTHEAST OHIO

CITY           SKY/WX    TMP DP  RH WIND       PRES   REMARKS
COLUMBUS       CLOUDY    59  52  77 SW17G24   29.69F
OSU AIRPORT    CLOUDY    58  53  84 SW16G25   29.68F
BOLTON FIELD   CLOUDY    57  54  88 SW15G24   29.70S
RICKENBACK AFB NOT AVBL
NEWARK         CLOUDY    58  52  80 SW14G22   29.68F
MARION         CLOUDY    55  51  86 SW17G24   29.67S
LANCASTER      CLOUDY    60  52  74 SW14      29.71F
ZANESVILLE     CLOUDY    58  51  78 SW13      29.71S
NEW PHILLY     CLOUDY    53  51  93 VRB5      29.70F
$$




USA.gov is the U.S. government's official web portal to all federal, state and local government web resources and services.